Flag for Germany Weather past 2 weeks in Schönebeck, Saxony-Anhalt, Germany

Now
62 °F

Fog.


Feels Like: 62 °F
Forecast: 54 / 69 °F
Wind: 1 mph from West

Location: Magdeburg

Current Time: Sep 30, 2014 at 10:05:08 PM

Latest Report: Sep 30, 2014 at 9:00 PM


Visibility: 3 mi

Pressure: 30.28 "Hg

Humidity: 94%

Dew point: 60 °F

Location of SchönebeckLocation

Historic Weather in Schönebeck — Graph

°F

Schönebeck temperature yesterday

Maximum temperature yesterday: 77 °F (at 3:00 PM)
Minimum temperature yesterday: 50 °F (at 6:00 AM)
Average temperature yesterday: 64 °F

Past Weeks' High & Low Weather Summary

 TemperatureHumidityPressure
High77 °F (Sep 29, 3:00 PM)98% (Sep 15, 11:00 PM)30.39 "Hg (Sep 15, 11:00 PM)
Low44 °F (Sep 28, 6:00 AM)43% (Sep 17, 6:00 PM)29.83 "Hg (Sep 24, 7:00 PM)
Average60 °F80%30.06 "Hg
* Reported Sep 15 9:00 PM — Sep 30 9:00 PM, Schönebeck, Weather by CustomWeather, © 2014

Note: Actual official high and low records may vary slightly from our data, if they occured in-between our weather recording intervals... More about our weather records

Advertising

Schönebeck weather history for previous 24 hours

 ConditionsComfort  
Time TempWeatherWind HumidityBarometerVisibility
9:00 PM
Sep 30
62 °FFog.1 mph94%30.28 "Hg3 mi
8:00 PM62 °FFog.1 mph90%30.27 "Hg4 mi
7:00 PM65 °FOvercast.1 mph82%30.26 "Hg5 mi
6:00 PM67 °FOvercast.2 mph77%30.25 "Hg7 mi
5:00 PM68 °FOvercast.2 mph76%30.25 "Hg16 mi
4:00 PM68 °FOvercast.1 mph74%30.25 "Hg12 mi
3:00 PM69 °FOvercast.1 mph73%30.24 "Hg14 mi
2:00 PM68 °FOvercast.2 mph75%30.24 "Hg12 mi
1:00 PM68 °FPartly sunny.2 mph73%30.24 "Hg12 mi
12:00 PM65 °FOvercast.3 mph79%30.24 "Hg14 mi
10:00 AM64 °FOvercast.3 mph87%30.24 "Hg6 mi
9:00 AM62 °FOvercast.2 mph95%30.22 "Hg5 mi
8:00 AM62 °FFog.2 mph90%30.21 "Hg3 mi
7:00 AM62 °FFog.2 mph92%30.20 "Hg3 mi
6:00 AM61 °FOvercast.2 mph94%30.19 "Hg3 mi
4:00 AM62 °FLight rain. Overcast.1 mph92%30.21 "Hg2 mi
3:00 AM62 °FOvercast.1 mph91%30.20 "Hg3 mi
2:00 AM64 °FLight rain. Overcast.3 mph85%30.21 "Hg6 mi
1:00 AM65 °FOvercast.2 mph77%30.21 "Hg11 mi
12:00 AM65 °FOvercast.2 mph76%30.21 "Hg14 mi
11:00 PM
Sep 29
67 °FOvercast.3 mph71%30.21 "Hg17 mi
10:00 PM67 °FOvercast.2 mph72%30.20 "Hg12 mi
Weather by CustomWeather, © 2014

See weather overviewHow to use our weather pages